COSMOS 2499 DEB, 49939

Orbit data source: Space-Track

COSMOS 2499 DEB, 49939 is space debris in LEO originally from a launch on Fri, 23 May 2014 UTC launched from the Plesetsk Missile And Space Complex (PKMTR). Debris objects in space refer to the collection of defunct objects orbiting the Earth. Examples of debris include non-operational satellites, rocket bodies, and fragments generated from explosions, collisions, or faulty payload assembly.

Loading next visibility...
Identifier
49939, 2014-028W
Orbit
LEO
Country
Flag of CISCIS
Related business
Manufacturer
TsNIIKhM
Mission
Spacecraft
Bus & Motor
Unknown
Mass
Unknown
Launch date (UTC)
2014-05-23 (12 years ago)
Launch vehicle
Unknown
Launch site
Plesetsk Missile And Space Complex (PKMTR)
Object type
Payload
Rocket body
Debris
Shape & HBR
Unknown shape, 0.1 m
Radar Cross Section
Medium (>0.1 m² and <1 m²)

Expand to show TLE details & history
Last TLE update: 5 days ago

TLE from 5 days ago
0 COSMOS 2499 DEB
1 49939U 14028W   26168.54532932  .00001034  00000-0  34551-2 0  9993
2 49939  82.5024 254.4550 0253911 332.6676  26.1255 12.88920714216884
Epoch: 2026-06-17T13:05Z
TLE epoch observation values (Epoch: 2026-06-17T13:05:16.453Z)
Latitude
-0.00008°
Longitude
152.33496°
Altitude
1,134.373 km
Speed
7.368 km/s
True Right ascension
16h 57m 49s
True Declination
0° 00' 00"
Sunlit
Object was in full shadow at epoch
Visualization orbit readout
Latitude
Unknown
Longitude
Unknown
Altitude
Unknown
Speed
Unknown
Apparent Right ascension
Unknown
Apparent Declination
Unknown
Sunlit
N/A
Visualization observer readout
Local Sidereal Time
21:41:05
Azimuth
Unknown
Elevation
Unknown
Doppler factor
Unknown
Orbital elements
Apogee altitude
1,498.128 km
Perigee altitude
1,108.059 km
Semi-major axis
7,681.231 km
Eccentricity
0.02539
Inclination
82.5024°
RAAN
254.455°
Arg. of periapsis
332.6676°
True anomaly
27.44413°
Mean anomaly
26.1255°
Eccentric anomaly
26.78101°
Mean motion
3.22401 °/min
Orbital period
111.66 mins
BSTAR
0.0034551
Loading maneuver chart data...
Computing Atmospheric mass density...
Loading historical data...
Loading historical data...
Loading historical data...
Loading historical data...
Loading historical data...
Loading historical data...
Loading historical data...

Documentation

Showing up to 5 results
|